Regional Weather Roundup
Issued by NWS

Home | Current Version | Previous Version | Graphics & Text | Print | Product List | Glossary On
Versions: 1 2 3 4 5 6 7 8 9 10 11 12 13 14 15 16 17 18 19 20 21 22 23 24 25 26 27 28 29 30 31 32 33 34 35 36 37 38 39 40 41 42 43 44 45 46 47 48 49 50
000
ASUS45 KBOU 260907
RWRCO

WEATHER ROUNDUP FOR COLORADO
NATIONAL WEATHER SERVICE DENVER/BOULDER CO
300 AM MDT TUE MAY 26 2015

NOTE: "FAIR" INDICATES FEW OR NO CLOUDS BELOW 12000 FEET WITH NO
SIGNIFICANT WEATHER AND/OR OBSTRUCTIONS TO VISIBILITY.

COZ001>005-013-030-031-261000-
...NORTHWEST COLORADO...

CITY           SKY/WX    TMP DP  RH WIND       PRES   REMARKS
CRAIG          PTCLDY    39  38  96 CALM      30.07S
HAYDEN         PTCLDY    43  37  81 SE7       30.08R
MEEKER         CLEAR     43  39  86 E7        30.08S
MOUNT WERNER   NOT AVBL
STEAMBOAT SPGS CLOUDY    39  38  94 CALM      30.10R
WALDEN         PTCLDY    34  32  93 SE6       29.99F WCI  29
$$

COZ006>008-011-261000-
...WEST CENTRAL VALLEYS...

CITY           SKY/WX    TMP DP  RH WIND       PRES   REMARKS
GRAND JUNCTION PTCLDY    49  45  86 SE5       30.01F
MONTROSE       MOCLDY    47  40  76 SE6       30.09S
EAGLE          CLOUDY    46  45  93 CALM      30.12S
RIFLE          CLEAR     45  43  93 CALM      30.08S
DELTA          PTCLDY    50  43  77 MISG      30.06S
NUCLA          PTCLDY    43  37  81 SE9       30.12S
$$

COZ017>023-064>068-261000-
...SOUTHWEST COLORADO...

CITY           SKY/WX    TMP DP  RH WIND       PRES   REMARKS
DURANGO        CLEAR     37  35  92 CALM      30.11S
CORTEZ         CLEAR     39  38  96 SE5       30.09S
PAGOSA SPRINGS CLEAR     38  38  99 CALM      30.16R
TELLURIDE      PTCLDY    38  35  90 SE3       30.22S
WOLF CREEK PAS NOT AVBL
$$

COZ009-010-012-014-032>034-037-058>063-261000-
...CENTRAL COLORADO...

CITY           SKY/WX    TMP DP  RH WIND       PRES   REMARKS
ASPEN          MOCLDY    39  37  92 SW6       30.13F
BUENA VISTA    MOCLDY    40  33  76 CALM      30.13R
COPPER MTN     FOG       34  30  86 W15       30.25S VSB<1/4 WCI  24
BERTHOUD PASS  HAZE      27  18  69 NW20G28   30.25S VSB 1/4 WCI  13
COTTONWOOD PAS CLOUDY    41  32  70 W5        30.19S
GUNNISON       MOCLDY    39  34  81 N7        30.17S
KREMMLING      MOCLDY    41  36  81 CALM      30.13S
LEADVILLE      CLOUDY    33  33 100 NE7       30.18S WCI  27
MONARCH PASS   CLOUDY    30  28  93 MISG      30.36S
SALIDA         MOCLDY    43  36  75 W5        30.19S
SUNLIGHT       CLOUDY    34  34 100 CALM      30.26S
WILKERSON PASS CLEAR     32  28  86 W7        30.24F WCI  26
$$

COZ069>075-261000-
...SAN LUIS VALLEY/SANGRE DE CRISTO MOUNTAINS...

CITY           SKY/WX    TMP DP  RH WIND       PRES   REMARKS
ALAMOSA        CLEAR     40  35  83 NW6       30.12S
LA VETA PASS   CLEAR    N/A N/A N/A MISG      30.18S
SAGUACHE       PTCLDY    41  34  75 NW8       30.14R
$$

COZ035-036-038>040-261000-
...NORTHERN COLORADO FRONT RANGE...

CITY           SKY/WX    TMP DP  RH WIND       PRES   REMARKS
DENVER INTL AP MOCLDY    48  43  82 SW8       30.00F
DMNS CITY PARK   N/A     47  44  88 S5        30.00S
AURORA         MOCLDY    47  43  88 S7        30.02F
FRONT RANGE AP PTCLDY    50  45  81 SW7       30.01F
ERIE MUNI ARPT PTCLDY    45  44  97 CALM      30.00S
BOULDER MUN AP PTCLDY    46  45  93 CALM      30.00S
CENTENNIAL     MOCLDY    46  43  89 S5        30.02F
BROOMFIELD     PTCLDY    48  43  81 CALM      30.01S
FORT COLLINS   PTCLDY    46  43  87 CALM      30.01F
LONGMONT       MOCLDY    46  43  88 CALM      30.02S
$$

COZ041-046-047-076>085-087-088-261000-
...PIKES PEAK/PALMER DIVIDE AND SOUTHERN FOOTHILLS...

CITY           SKY/WX    TMP DP  RH WIND       PRES   REMARKS
COLO. SPRINGS  CLEAR     45  42  89 CALM      30.03F
A. F. ACADEMY  CLEAR     39  39  99 N7        30.04F
ELLICOTT       NOT AVBL
FALCON         CLEAR     41  38  92 N3        30.06S
FORT CARSON    CLEAR     46  41  85 NW8       30.02S
LIMON          CLOUDY    50  44  80 NW12      29.99R
MONUMENT HILL  NOT AVBL
TRINIDAD       CLEAR     43  40  89 SW8       30.04S
$$

COZ042>045-048>051-090-091-261000-
...NORTHEAST COLORADO...

CITY           SKY/WX    TMP DP  RH WIND       PRES   REMARKS
GREELEY ARPT   PTCLDY    46  45  93 N5        30.00S
AKRON          PTCLDY    46  45  96 W9        29.97S
BURLINGTON     CLEAR     48  43  82 N7        29.95S
WRAY           CLOUDY    51  48  90 NW7       29.94S
STERLING       PTCLDY    46  46 100 NW6       29.95R
HOLYOKE        NOT AVBL
FORT MORGAN    PTCLDY    47  45  93 W6        29.99S
$$

COZ086-089-092>099-261000-
...SOUTHEAST COLORADO...

CITY           SKY/WX    TMP DP  RH WIND       PRES   REMARKS
PUEBLO         CLEAR     49  45  86 NW7       29.99S
LA JUNTA       PTCLDY    53  48  83 SW9       29.96R
LAMAR          PTCLDY    50  48  93 SE7       29.93F
SPRINGFIELD      N/A     47  46  97 NW7       29.97R
$$


USA.gov is the U.S. government's official web portal to all federal, state and local government web resources and services.